none
Visual Studio Express 2013 for Windows Update 3설치 문제 RRS feed

  • 질문

  • 이 버전의 Visual Studio에는 최신버전의 Windows가 설치된 컴퓨터가 필요합니다라는 창이 뜨고는

    설치가 더 이상 진행이 되지 않고 있습니다.

    시스템 정보창의 Windows 버전을 확인하면

    Windows 7 Professional K

    Service Pack 1

    으로 SP1 사용중이며, 업데이트는 이미 완료된 상태입니다. 인터넷 익스플로러도 10을 사용하고 있습니다.

    (고로 SP1 설치라거나, 업데이트 하라는 대답은 정중히 사양하겠습니다)

    Update3의 이전 버전인 경우는 설치가 문제 없이 진행되는 점을 확인하였으나,

    해당 설치 파일이 각각 for web과 for desktop입니다.

    해결 방법이 없다면 차라리 Update2나 Visual Studio Express 2013 for windows 설치파일을 제공해 주시면 감사하겠습니다.

    혹시나 하여 아래 해당 에러 로그 첨부합니다.

    [04C4:06EC][2014-08-26T16:31:39]i001: Burn v3.7.3117.0, Windows v6.1 (Build 7601: Service Pack 1), path: C:\Users\THEKIN\AppData\Local\Microsoft\Windows\Temporary Internet Files\Content.IE5\LD9SY0QP\winexpress_full.exe, cmdline: ''
    [04C4:06EC][2014-08-26T16:31:39]i000: Initializing string variable 'EditionDisplayName' to value 'Express 2013 for Windows'
    [04C4:06EC][2014-08-26T16:31:39]i000: Initializing string variable 'ExtraEditionDisplayName' to value '#loc.slipstream'
    [04C4:06EC][2014-08-26T16:31:39]i000: Initializing numeric variable 'MoreLanguageFwlinkId' to value '376921'
    [04C4:06EC][2014-08-26T16:31:39]i000: Initializing numeric variable 'PrivacyAgreementFwlinkId' to value '376910'
    [04C4:06EC][2014-08-26T16:31:39]i000: Initializing numeric variable 'PrivacyStatementFwlinkId' to value '376910'
    [04C4:06EC][2014-08-26T16:31:39]i000: Initializing numeric variable 'MinOsLevelFwlinkId' to value '376920'
    [04C4:06EC][2014-08-26T16:31:39]i000: Initializing numeric variable 'SolutionFwlinkId' to value '376911'
    [04C4:06EC][2014-08-26T16:31:39]i000: Initializing numeric variable 'HelpFwlinkId' to value '376912'
    [04C4:06EC][2014-08-26T16:31:39]i000: Initializing numeric variable 'IE10FwlinkId' to value '376914'
    [04C4:06EC][2014-08-26T16:31:39]i000: Initializing numeric variable 'WinBlueFwlinkId' to value '376917'
    [04C4:06EC][2014-08-26T16:31:39]i000: Initializing numeric variable 'SHA256BlockFwlinkId' to value '376918'
    [04C4:06EC][2014-08-26T16:31:39]i000: Initializing numeric variable 'Win81PreRelBlockFwlinkId' to value '376916'
    [04C4:06EC][2014-08-26T16:31:39]i000: Initializing string variable 'NetfxProductVersion' to value '4.5.30723'
    [04C4:06EC][2014-08-26T16:31:39]i000: Initializing string variable 'ProfessionalVSVersion' to value '11.0.50727'
    [04C4:06EC][2014-08-26T16:31:39]i000: Initializing string variable 'BaselineBundleVersion' to value '12.0.21005'
    [04C4:06EC][2014-08-26T16:31:39]i000: Initializing string variable 'FirstSlipstreamBundleVersion' to value '12.0.21006'
    [04C4:06EC][2014-08-26T16:31:39]i000: Initializing string variable 'ProductKey' to value 'HRQTK6Y72DFXXGBCV4XW7KQJG'
    [04C4:06EC][2014-08-26T16:31:39]i000: Initializing string variable 'WinBlue_Common_KitsRootPath' to value '[ProgramFilesFolder]Windows Kits\8.1\'
    [04C4:06EC][2014-08-26T16:31:39]i000: Initializing string variable 'WinBlue_Intellisense_KitsRootPath' to value '[ProgramFilesFolder]Windows Kits\8.1\'
    [04C4:06EC][2014-08-26T16:31:39]i000: Initializing string variable 'VS_Install_Path_VC' to value '[CustomInstallPath]'
    [04C4:06EC][2014-08-26T16:31:39]i000: Initializing string variable 'VS_Install_Path' to value '[CustomInstallPath]'
    [04C4:06EC][2014-08-26T16:31:39]i000: Setting string variable 'WixBundleLog' to value 'C:\Users\THEKIN\AppData\Local\Temp\dd_winexpress_full_20140826163139.log'
    [04C4:06EC][2014-08-26T16:31:39]i000: Setting string variable 'WixBundleOriginalSource' to value 'C:\Users\THEKIN\AppData\Local\Microsoft\Windows\Temporary Internet Files\Content.IE5\LD9SY0QP\winexpress_full.exe'
    [04C4:06EC][2014-08-26T16:31:39]i000: Setting string variable 'WixBundleOriginalSourceFolder' to value 'C:\Users\THEKIN\AppData\Local\Microsoft\Windows\Temporary Internet Files\Content.IE5\LD9SY0QP\'
    [04C4:06EC][2014-08-26T16:31:39]i000: Setting string variable 'WixBundleName' to value 'Microsoft Visual Studio Express 2013 for Windows - ENU with Update 3'
    [04C4:06EC][2014-08-26T16:31:39]i000: Loading managed bootstrapper application.
    [04C4:06EC][2014-08-26T16:31:39]i000: Creating BA thread to run asynchronously.
    [04C4:1184][2014-08-26T16:31:39]i000: Ux Started
    [04C4:1184][2014-08-26T16:31:39]i000: MUX:  Loading LocalizableStrings.xml string from LocalizableStrings.xml
    [04C4:1184][2014-08-26T16:31:39]i000: MUX:  Reset Result
    [04C4:1184][2014-08-26T16:31:39]i000: MUX:  Current action: Install
    [04C4:1184][2014-08-26T16:31:39]i000: Setting string variable 'CurrentOperation' to value 'Install'
    [04C4:1184][2014-08-26T16:31:39]i000: Setting string variable 'IsLanguagePack' to value ''
    [04C4:1184][2014-08-26T16:31:39]i000: MUX:  Current action: Install
    [04C4:1184][2014-08-26T16:31:39]i000: Setting string variable 'CurrentOperation' to value 'Install'
    [04C4:1184][2014-08-26T16:31:39]i000: MUX:  New last unconfirmed source: Web
    [04C4:1184][2014-08-26T16:31:39]i000: MUX:  Source confirmed
    [04C4:1184][2014-08-26T16:31:39]i000: Setting string variable 'CurrentRepairPackage' to value ''
    [04C4:1184][2014-08-26T16:31:39]i000: Setting numeric variable 'HypervisorSupported' to value 0
    [04C4:1184][2014-08-26T16:31:39]i000: Setting numeric variable 'HypervisorEnabled' to value 0
    [04C4:1184][2014-08-26T16:31:39]i000: MUX:  Resume = None
    [04C4:1184][2014-08-26T16:31:39]i000: MUX:  Restart = Prompt
    [04C4:1184][2014-08-26T16:31:39]i000: MUX:  Relation = None
    [04C4:1184][2014-08-26T16:31:39]i000: MUX:  Action = Install
    [04C4:1184][2014-08-26T16:31:39]i000: MUX:  Display = Full
    [04C4:1184][2014-08-26T16:31:39]i000: Setting string variable 'CustomInstallPath' to value 'C:\Program Files (x86)'
    [04C4:1184][2014-08-26T16:31:39]i000: Setting string variable 'CustomInstallPath' to value 'C:\Program Files (x86)\Microsoft Visual Studio 12.0'
    [04C4:1184][2014-08-26T16:31:39]i000: Setting string variable 'RelationType' to value 'None'
    [04C4:1184][2014-08-26T16:31:39]i000: Setting string variable 'DisplayMode' to value 'Full'
    [04C4:1184][2014-08-26T16:31:39]i000: Setting numeric variable 'NetworkAvailable' to value 1
    [04C4:1184][2014-08-26T16:31:39]i000: Setting string variable 'OriginalDisplayMode' to value 'Full'
    [04C4:1184][2014-08-26T16:31:39]i000: Setting string variable 'OriginalDisplayModeSwitch' to value ''
    [04C4:1184][2014-08-26T16:31:39]i000: MUX:  SetupAction: Install
    [04C4:1184][2014-08-26T16:31:39]i000: MUX:  ProductVersion: 12.0.30723.00.00
    [04C4:1184][2014-08-26T16:31:39]i000: MUX:  ProductLanguage: 1033
    [04C4:1184][2014-08-26T16:31:39]i000: MUX:  Branch: Rel
    [04C4:1184][2014-08-26T16:31:39]i000: MUX:  OS: Windows 7 Professional
    [04C4:1184][2014-08-26T16:31:39]i000: MUX:  OSVersion: 6.1.7601.65536
    [04C4:1184][2014-08-26T16:31:39]i000: MUX:  OSLanguage: 1042
    [04C4:1184][2014-08-26T16:31:39]i000: MUX:  OSArchitecture: AMD64
    [04C4:1184][2014-08-26T16:31:40]i000: MUX:  Ux Initialized
    [04C4:1184][2014-08-26T16:31:40]i000: MUX:  Aquiring mutex 'Global\Devdiv' with a timeout of 0 ms
    [04C4:1184][2014-08-26T16:31:40]i000: MUX:  Mutex 'Global\Devdiv' ownership: True
    [04C4:1184][2014-08-26T16:31:40]i000: MUX:  Seen existing cache mutex 'Global\Devdiv CacheMutex': False
    [04C4:1184][2014-08-26T16:31:40]i000: MUX:  Aquiring mutex 'Global\Devdiv CacheMutex' with a timeout of 60000 ms
    [04C4:1184][2014-08-26T16:31:40]i000: MUX:  Mutex 'Global\Devdiv CacheMutex' ownership: True
    [04C4:06EC][2014-08-26T16:31:40]i100: Detect begin, 72 packages
    [04C4:1184][2014-08-26T16:31:40]i000: MUX:  Wait for Detect to complete
    [04C4:06EC][2014-08-26T16:31:40]i000: MUX:  Detection Phase
    [04C4:06EC][2014-08-26T16:31:40]i000: MUX:  ---------------
    [04C4:06EC][2014-08-26T16:31:40]i000: Setting numeric variable 'blend_core_DetectKeyExists' to value 1
    [04C4:06EC][2014-08-26T16:31:40]i000: Registry key not found. Key = 'SOFTWARE\Classes\Installer\Dependencies\Microsoft.VS.Bliss_Core,v12'; variable = 'bliss_core_DetectKeyExists'
    [04C4:06EC][2014-08-26T16:31:40]i000: Setting numeric variable 'bliss_core_DetectKeyExists' to value 0
    [04C4:06EC][2014-08-26T16:31:40]i000: Registry key not found. Key = 'SOFTWARE\Microsoft\DevDiv\vc\Servicing\12.0\CompilerCore'; variable = 'compilerCore_DetectKeyExists'
    [04C4:06EC][2014-08-26T16:31:40]i000: Setting numeric variable 'compilerCore_DetectKeyExists' to value 0
    [04C4:06EC][2014-08-26T16:31:40]i000: Registry key not found. Key = 'SOFTWARE\Microsoft\DevDiv\vc\Servicing\12.0\CompilerCore86'; variable = 'compilerCore86_DetectKeyExists'
    [04C4:06EC][2014-08-26T16:31:40]i000: Setting numeric variable 'compilerCore86_DetectKeyExists' to value 0
    [04C4:06EC][2014-08-26T16:31:40]i000: Setting string variable 'DevEnvAppIdKeyPath' to value ''
    [04C4:06EC][2014-08-26T16:31:40]i000: Registry key not found. Key = 'SOFTWARE\Microsoft\Help\v2.1\Setup'; variable = 'help3vs_49_DetectKey'
    [04C4:06EC][2014-08-26T16:31:40]i000: Registry key not found. Key = 'SOFTWARE\Microsoft\Help\v2.1\Setup'; variable = 'help3vs_49_DetectKeyExists'
    [04C4:06EC][2014-08-26T16:31:40]i000: Setting numeric variable 'help3vs_49_DetectKeyExists' to value 0
    [04C4:06EC][2014-08-26T16:31:40]i000: Setting numeric variable 'IEsvcVersionExists' to value 1
    [04C4:06EC][2014-08-26T16:31:40]i000: Setting string variable 'IEsvcVersion' to value '11.0.9600.17239'
    [04C4:06EC][2014-08-26T16:31:40]i000: Setting string variable 'netfxfullredist_43_DetectKey' to value '4.5.50938'
    [04C4:06EC][2014-08-26T16:31:40]i000: Setting string variable 'OS_BuildNumber' to value '7601'
    [04C4:06EC][2014-08-26T16:31:40]i000: Registry key not found. Key = 'Software\Microsoft\Microsoft SQL Server Compact Edition\v4.0\enu'; variable = 'ssceruntime_x64_msi_DetectKey'
    [04C4:06EC][2014-08-26T16:31:40]i000: Registry key not found. Key = 'Software\Microsoft\Microsoft SQL Server Compact Edition\v4.0\enu'; variable = 'ssceruntime_x64_msi_DetectKeyExists'
    [04C4:06EC][2014-08-26T16:31:40]i000: Setting numeric variable 'ssceruntime_x64_msi_DetectKeyExists' to value 0
    [04C4:06EC][2014-08-26T16:31:40]i000: Registry key not found. Key = 'Software\Microsoft\Microsoft SQL Server Compact Edition\v4.0\enu'; variable = 'ssceruntime_x86_msi_DetectKey'
    [04C4:06EC][2014-08-26T16:31:40]i000: Registry key not found. Key = 'Software\Microsoft\Microsoft SQL Server Compact Edition\v4.0\enu'; variable = 'ssceruntime_x86_msi_DetectKeyExists'
    [04C4:06EC][2014-08-26T16:31:40]i000: Setting numeric variable 'ssceruntime_x86_msi_DetectKeyExists' to value 0
    [04C4:06EC][2014-08-26T16:31:40]i000: Registry key not found. Key = 'SOFTWARE\Microsoft\DevDiv\vs\Servicing\12.0\teamExplorerCore'; variable = 'teamExplorercore_DetectKeyExists'
    [04C4:06EC][2014-08-26T16:31:40]i000: Setting numeric variable 'teamExplorercore_DetectKeyExists' to value 0
    [04C4:06EC][2014-08-26T16:31:40]i000: Registry key not found. Key = 'SOFTWARE\Microsoft\VisualStudio\SxS\VS7'; variable = 'VS_Install_Path_KeyExists'
    [04C4:06EC][2014-08-26T16:31:40]i000: Setting numeric variable 'VS_Install_Path_KeyExists' to value 0
    [04C4:06EC][2014-08-26T16:31:40]i052: Condition 'VS_Install_Path_KeyExists' evaluates to false.
    [04C4:06EC][2014-08-26T16:31:40]i000: Registry key not found. Key = 'SOFTWARE\Microsoft\VisualStudio\SxS\VS7'; variable = 'VS_Install_Path_VC_KeyExists'
    [04C4:06EC][2014-08-26T16:31:40]i000: Setting numeric variable 'VS_Install_Path_VC_KeyExists' to value 0
    [04C4:06EC][2014-08-26T16:31:40]i052: Condition 'VS_Install_Path_VC_KeyExists' evaluates to false.
    [04C4:06EC][2014-08-26T16:31:40]i000: Setting string variable 'VSComponentPathVariable' to value ''
    [04C4:06EC][2014-08-26T16:31:40]i000: Registry key not found. Key = 'SOFTWARE\Microsoft\Updates\Microsoft Visual Studio 2013\vsupdate_kb2829760'; variable = 'vsupdate_DetectKey'
    [04C4:06EC][2014-08-26T16:31:40]i000: Registry key not found. Key = 'SOFTWARE\Microsoft\Updates\Microsoft Visual Studio 2013\vsupdate_kb2829760'; variable = 'vsupdate_DetectKeyExists'
    [04C4:06EC][2014-08-26T16:31:40]i000: Setting numeric variable 'vsupdate_DetectKeyExists' to value 0
    [04C4:06EC][2014-08-26T16:31:40]i000: Setting string variable 'VSWinExpressAppIdKeyPath' to value ''
    [04C4:06EC][2014-08-26T16:31:40]i000: Registry key not found. Key = 'SOFTWARE\Microsoft\Windows Kits\Installed Roots'; variable = 'WinBlue_Common_KitsRoot_KeyExists'
    [04C4:06EC][2014-08-26T16:31:40]i000: Setting numeric variable 'WinBlue_Common_KitsRoot_KeyExists' to value 0
    [04C4:06EC][2014-08-26T16:31:40]i052: Condition 'WinBlue_Common_KitsRoot_KeyExists' evaluates to false.
    [04C4:06EC][2014-08-26T16:31:40]i000: Registry key not found. Key = 'SOFTWARE\Microsoft\Windows Kits\Installed Roots'; variable = 'WinBlue_Intellisense_KitsRoot_KeyExists'
    [04C4:06EC][2014-08-26T16:31:40]i000: Setting numeric variable 'WinBlue_Intellisense_KitsRoot_KeyExists' to value 0
    [04C4:06EC][2014-08-26T16:31:40]i052: Condition 'WinBlue_Intellisense_KitsRoot_KeyExists' evaluates to false.
    [04C4:06EC][2014-08-26T16:31:40]i000: Setting string variable 'WindowsBuildNumber' to value '7601'
    [04C4:06EC][2014-08-26T16:31:40]i000: No products found for UpgradeCode: {D82433A9-1D86-3695-B4C5-25E8B1794AE2}
    [04C4:06EC][2014-08-26T16:31:40]i000: Product not found: (null)
    [04C4:06EC][2014-08-26T16:31:40]i000: Setting version variable 'BuildTools_CoreRes_Installed' to value '0.0.0.0'
    [04C4:06EC][2014-08-26T16:31:40]i000: No products found for UpgradeCode: {7A02D697-899C-3AB4-8A85-421BE7CBFD9E}
    [04C4:06EC][2014-08-26T16:31:40]i000: Product not found: (null)
    [04C4:06EC][2014-08-26T16:31:40]i000: Setting version variable 'BuildTools_Core_Installed' to value '0.0.0.0'
    [04C4:06EC][2014-08-26T16:31:40]i052: Condition '(CurrentOperation = "Repair") OR (CurrentOperation = "Uninstall")' evaluates to false.
    [04C4:06EC][2014-08-26T16:31:40]i000: MUX:  Adding package: vs_preclean_winexpress to package detect list
    [04C4:06EC][2014-08-26T16:31:40]i000: MUX:  Reset Result
    [04C4:06EC][2014-08-26T16:31:40]i000: MUX:  Reset Result
    [04C4:06EC][2014-08-26T16:31:40]i052: Condition '(NOT(RelationType = "Patch") AND NOT (CurrentOperation = "Install"))' evaluates to false.
    [04C4:06EC][2014-08-26T16:31:40]i000: MUX:  Adding package: Preparation_Uninstall_winexpress_full to package detect list
    [04C4:06EC][2014-08-26T16:31:40]i000: MUX:  Reset Result
    [04C4:06EC][2014-08-26T16:31:40]i000: MUX:  Reset Result
    [04C4:06EC][2014-08-26T16:31:40]i000: MUX:  Adding package: vcRuntimeMinimum_x86 to package detect list
    [04C4:06EC][2014-08-26T16:31:40]i000: MUX:  Reset Result
    [04C4:06EC][2014-08-26T16:31:40]i000: MUX:  Reset Result
    [04C4:06EC][2014-08-26T16:31:40]i000: MUX:  Adding package: vs_minshellcore to package detect list
    [04C4:06EC][2014-08-26T16:31:40]i000: MUX:  Reset Result
    [04C4:06EC][2014-08-26T16:31:40]i000: MUX:  Reset Result
    [04C4:06EC][2014-08-26T16:31:40]i000: MUX:  Adding package: vs_minshellinterop to package detect list
    [04C4:06EC][2014-08-26T16:31:40]i000: MUX:  Reset Result
    [04C4:06EC][2014-08-26T16:31:40]i000: MUX:  Reset Result
    [04C4:06EC][2014-08-26T16:31:40]i000: MUX:  Adding package: vs_minshellres to package detect list
    [04C4:06EC][2014-08-26T16:31:40]i000: MUX:  Reset Result
    [04C4:06EC][2014-08-26T16:31:40]i000: MUX:  Reset Result
    [04C4:06EC][2014-08-26T16:31:40]i000: MUX:  Adding package: ssceruntime_x86_msi to package detect list
    [04C4:06EC][2014-08-26T16:31:40]i000: MUX:  Reset Result
    [04C4:06EC][2014-08-26T16:31:40]i000: MUX:  Reset Result
    [04C4:06EC][2014-08-26T16:31:40]i000: MUX:  Adding package: ssceruntime_x64_msi to package detect list
    [04C4:06EC][2014-08-26T16:31:40]i000: MUX:  Reset Result
    [04C4:06EC][2014-08-26T16:31:40]i000: MUX:  Reset Result
    [04C4:06EC][2014-08-26T16:31:40]i000: MUX:  Adding package: vcRuntimeMinimum_x64 to package detect list
    [04C4:06EC][2014-08-26T16:31:40]i000: MUX:  Reset Result
    [04C4:06EC][2014-08-26T16:31:40]i000: MUX:  Reset Result
    [04C4:06EC][2014-08-26T16:31:40]i000: MUX:  Adding package: VCRedistD11x86 to package detect list
    [04C4:06EC][2014-08-26T16:31:40]i000: MUX:  Reset Result
    [04C4:06EC][2014-08-26T16:31:40]i000: MUX:  Reset Result
    [04C4:06EC][2014-08-26T16:31:40]i000: MUX:  Adding package: VCRedistD11x64 to package detect list
    [04C4:06EC][2014-08-26T16:31:40]i000: MUX:  Reset Result
    [04C4:06EC][2014-08-26T16:31:40]i000: MUX:  Reset Result
    [04C4:06EC][2014-08-26T16:31:40]i000: MUX:  Adding package: vcRuntimeAdditional_x86 to package detect list
    [04C4:06EC][2014-08-26T16:31:40]i000: MUX:  Reset Result
    [04C4:06EC][2014-08-26T16:31:40]i000: MUX:  Reset Result
    [04C4:06EC][2014-08-26T16:31:40]i000: MUX:  Adding package: vcRuntimeAdditional_x64 to package detect list
    [04C4:06EC][2014-08-26T16:31:40]i000: MUX:  Reset Result
    [04C4:06EC][2014-08-26T16:31:40]i000: MUX:  Reset Result
    [04C4:06EC][2014-08-26T16:31:40]i000: MUX:  Adding package: vcRuntimeDebug_x86 to package detect list
    [04C4:06EC][2014-08-26T16:31:40]i000: MUX:  Reset Result
    [04C4:06EC][2014-08-26T16:31:40]i000: MUX:  Reset Result
    [04C4:06EC][2014-08-26T16:31:40]i000: MUX:  Adding package: vcRuntimeDebug_x64 to package detect list
    [04C4:06EC][2014-08-26T16:31:40]i000: MUX:  Reset Result
    [04C4:06EC][2014-08-26T16:31:40]i000: MUX:  Reset Result
    [04C4:06EC][2014-08-26T16:31:40]i000: MUX:  Adding package: Msi_BuildTools_MSBuild_x86 to package detect list
    [04C4:06EC][2014-08-26T16:31:40]i000: MUX:  Reset Result
    [04C4:06EC][2014-08-26T16:31:40]i000: MUX:  Reset Result
    [04C4:06EC][2014-08-26T16:31:40]i000: MUX:  Adding package: Msi_BuildTools_MSBuild_amd64 to package detect list
    [04C4:06EC][2014-08-26T16:31:40]i000: MUX:  Reset Result
    [04C4:06EC][2014-08-26T16:31:40]i000: MUX:  Reset Result
    [04C4:06EC][2014-08-26T16:31:40]i000: MUX:  Adding package: Msi_BuildTools_MSBuild_Res_x86 to package detect list
    [04C4:06EC][2014-08-26T16:31:40]i000: MUX:  Reset Result
    [04C4:06EC][2014-08-26T16:31:40]i000: MUX:  Reset Result
    [04C4:06EC][2014-08-26T16:31:40]i000: MUX:  Adding package: Msi_BuildTools_MSBuild_Res_amd64 to package detect list
    [04C4:06EC][2014-08-26T16:31:40]i000: MUX:  Reset Result
    [04C4:06EC][2014-08-26T16:31:40]i000: MUX:  Reset Result
    [04C4:06EC][2014-08-26T16:31:40]i000: MUX:  Adding package: winexpress_coremsi to package detect list
    [04C4:06EC][2014-08-26T16:31:40]i000: MUX:  Reset Result
    [04C4:06EC][2014-08-26T16:31:40]i000: MUX:  Reset Result
    [04C4:06EC][2014-08-26T16:31:40]i000: MUX:  Adding package: winexpress_resourcemsi to package detect list
    [04C4:06EC][2014-08-26T16:31:40]i000: MUX:  Reset Result
    [04C4:06EC][2014-08-26T16:31:40]i000: MUX:  Reset Result
    [04C4:06EC][2014-08-26T16:31:40]i000: MUX:  Adding package: WinBlue_MetroSDK to package detect list
    [04C4:06EC][2014-08-26T16:31:40]i000: MUX:  Reset Result
    [04C4:06EC][2014-08-26T16:31:40]i000: MUX:  Reset Result
    [04C4:06EC][2014-08-26T16:31:40]i000: MUX:  Adding package: WinBlue_SDK_Metro_DX_Redist_x64 to package detect list
    [04C4:06EC][2014-08-26T16:31:40]i000: MUX:  Reset Result
    [04C4:06EC][2014-08-26T16:31:40]i000: MUX:  Reset Result
    [04C4:06EC][2014-08-26T16:31:40]i000: MUX:  Adding package: WinBlue_SDK_Metro_DX_Redist_x86 to package detect list
    [04C4:06EC][2014-08-26T16:31:40]i000: MUX:  Reset Result
    [04C4:06EC][2014-08-26T16:31:40]i000: MUX:  Reset Result
    [04C4:06EC][2014-08-26T16:31:40]i000: MUX:  Adding package: WinBlue_SDK_App_Cert_Kit_x64 to package detect list
    [04C4:06EC][2014-08-26T16:31:40]i000: MUX:  Reset Result
    [04C4:06EC][2014-08-26T16:31:40]i000: MUX:  Reset Result
    [04C4:06EC][2014-08-26T16:31:40]i000: MUX:  Adding package: WinBlue_SDK_App_Cert_Kit_Native_x64 to package detect list
    [04C4:06EC][2014-08-26T16:31:40]i000: MUX:  Reset Result
    [04C4:06EC][2014-08-26T16:31:40]i000: MUX:  Reset Result
    [04C4:06EC][2014-08-26T16:31:40]i000: MUX:  Adding package: WinBlue_SDK_App_Cert_Kit_x86 to package detect list
    [04C4:06EC][2014-08-26T16:31:40]i000: MUX:  Reset Result
    [04C4:06EC][2014-08-26T16:31:40]i000: MUX:  Reset Result
    [04C4:06EC][2014-08-26T16:31:40]i000: MUX:  Adding package: WinBlue_SDK_App_Cert_Kit_Native_x86 to package detect list
    [04C4:06EC][2014-08-26T16:31:40]i000: MUX:  Reset Result
    [04C4:06EC][2014-08-26T16:31:40]i000: MUX:  Reset Result
    [04C4:06EC][2014-08-26T16:31:40]i000: MUX:  Adding package: WinBlue_Runtime_Intellisense to package detect list
    [04C4:06EC][2014-08-26T16:31:40]i000: MUX:  Reset Result
    [04C4:06EC][2014-08-26T16:31:40]i000: MUX:  Reset Result
    [04C4:06EC][2014-08-26T16:31:40]i103: Detected related package: {1948E039-EC79-4591-951D-9867A8C14C90}, scope: PerMachine, version: 4.5.50709.0, language: 0 operation: MajorUpgrade
    [04C4:06EC][2014-08-26T16:31:40]i000: MUX:  Package (sdk_tools4) has been added to the Major Upgrade list
    [04C4:06EC][2014-08-26T16:31:40]i000: MUX:  Adding package: sdk_tools4 to package detect list
    [04C4:06EC][2014-08-26T16:31:40]i000: MUX:  Reset Result
    [04C4:06EC][2014-08-26T16:31:40]i000: MUX:  Reset Result
    [04C4:06EC][2014-08-26T16:31:40]i000: MUX:  Adding package: sdk_tools451 to package detect list
    [04C4:06EC][2014-08-26T16:31:40]i000: MUX:  Reset Result
    [04C4:06EC][2014-08-26T16:31:40]i000: MUX:  Reset Result
    [04C4:06EC][2014-08-26T16:31:40]i000: MUX:  Adding package: vs_expbsln_x64_msi_73 to package detect list
    [04C4:06EC][2014-08-26T16:31:40]i000: MUX:  Reset Result
    [04C4:06EC][2014-08-26T16:31:40]i000: MUX:  Reset Result
    [04C4:06EC][2014-08-26T16:31:40]i000: MUX:  Adding package: WinLibJS_CORE.msi to package detect list
    [04C4:06EC][2014-08-26T16:31:40]i000: MUX:  Reset Result
    [04C4:06EC][2014-08-26T16:31:40]i000: MUX:  Reset Result
    [04C4:06EC][2014-08-26T16:31:40]i000: MUX:  Adding package: PerfTools_CORE_x86.msi to package detect list
    [04C4:06EC][2014-08-26T16:31:40]i000: MUX:  Reset Result
    [04C4:06EC][2014-08-26T16:31:40]i000: MUX:  Reset Result
    [04C4:06EC][2014-08-26T16:31:40]i000: MUX:  Adding package: PerfTools_CORE_amd64.msi to package detect list
    [04C4:06EC][2014-08-26T16:31:40]i000: MUX:  Reset Result
    [04C4:06EC][2014-08-26T16:31:40]i000: MUX:  Reset Result
    [04C4:06EC][2014-08-26T16:31:40]i000: MUX:  Adding package: Verification_Tools to package detect list
    [04C4:06EC][2014-08-26T16:31:40]i000: MUX:  Reset Result
    [04C4:06EC][2014-08-26T16:31:40]i000: MUX:  Reset Result
    [04C4:06EC][2014-08-26T16:31:40]i000: MUX:  Adding package: tfs_objectmodelcore_x86 to package detect list
    [04C4:06EC][2014-08-26T16:31:40]i000: MUX:  Reset Result
    [04C4:06EC][2014-08-26T16:31:40]i000: MUX:  Reset Result
    [04C4:06EC][2014-08-26T16:31:40]i000: MUX:  Adding package: tfs_objectmodelcore_x64 to package detect list
    [04C4:06EC][2014-08-26T16:31:40]i000: MUX:  Reset Result
    [04C4:06EC][2014-08-26T16:31:40]i000: MUX:  Reset Result
    [04C4:06EC][2014-08-26T16:31:40]i000: MUX:  Adding package: tfs_objectmodelcoreres_x86_enu to package detect list
    [04C4:06EC][2014-08-26T16:31:40]i000: MUX:  Reset Result
    [04C4:06EC][2014-08-26T16:31:40]i000: MUX:  Reset Result
    [04C4:06EC][2014-08-26T16:31:40]i000: MUX:  Adding package: tfs_objectmodelcoreres_x64_enu to package detect list
    [04C4:06EC][2014-08-26T16:31:40]i000: MUX:  Reset Result
    [04C4:06EC][2014-08-26T16:31:40]i000: MUX:  Reset Result
    [04C4:06EC][2014-08-26T16:31:40]i000: MUX:  Adding package: vs_teamExplorerCore to package detect list
    [04C4:06EC][2014-08-26T16:31:40]i000: MUX:  Reset Result
    [04C4:06EC][2014-08-26T16:31:40]i000: MUX:  Reset Result
    [04C4:06EC][2014-08-26T16:31:40]i000: MUX:  Adding package: vs_teamExplorerCoreRes to package detect list
    [04C4:06EC][2014-08-26T16:31:40]i000: MUX:  Reset Result
    [04C4:06EC][2014-08-26T16:31:40]i000: MUX:  Reset Result
    [04C4:06EC][2014-08-26T16:31:40]i000: MUX:  Adding package: vc_compilercore86 to package detect list
    [04C4:06EC][2014-08-26T16:31:40]i000: MUX:  Reset Result
    [04C4:06EC][2014-08-26T16:31:40]i000: MUX:  Reset Result
    [04C4:06EC][2014-08-26T16:31:40]i000: MUX:  Adding package: vc_compilercore86res to package detect list
    [04C4:06EC][2014-08-26T16:31:40]i000: MUX:  Reset Result
    [04C4:06EC][2014-08-26T16:31:40]i000: MUX:  Reset Result
    [04C4:06EC][2014-08-26T16:31:40]i000: MUX:  Adding package: vc_compilercore to package detect list
    [04C4:06EC][2014-08-26T16:31:40]i000: MUX:  Reset Result
    [04C4:06EC][2014-08-26T16:31:40]i000: MUX:  Reset Result
    [04C4:06EC][2014-08-26T16:31:40]i000: MUX:  Adding package: vc_compilercoreres to package detect list
    [04C4:06EC][2014-08-26T16:31:40]i000: MUX:  Reset Result
    [04C4:06EC][2014-08-26T16:31:40]i000: MUX:  Reset Result
    [04C4:06EC][2014-08-26T16:31:40]i000: MUX:  Adding package: vc_librarycore86 to package detect list
    [04C4:06EC][2014-08-26T16:31:40]i000: MUX:  Reset Result
    [04C4:06EC][2014-08-26T16:31:40]i000: MUX:  Reset Result
    [04C4:06EC][2014-08-26T16:31:40]i000: MUX:  Adding package: vc_librarycore to package detect list
    [04C4:06EC][2014-08-26T16:31:40]i000: MUX:  Reset Result
    [04C4:06EC][2014-08-26T16:31:40]i000: MUX:  Reset Result
    [04C4:06EC][2014-08-26T16:31:40]i000: MUX:  Adding package: vc_cpp_rest to package detect list
    [04C4:06EC][2014-08-26T16:31:40]i000: MUX:  Reset Result
    [04C4:06EC][2014-08-26T16:31:40]i000: MUX:  Reset Result
    [04C4:06EC][2014-08-26T16:31:40]i000: MUX:  Adding package: vc_cpp_mobile to package detect list
    [04C4:06EC][2014-08-26T16:31:40]i000: MUX:  Reset Result
    [04C4:06EC][2014-08-26T16:31:40]i000: MUX:  Reset Result
    [04C4:06EC][2014-08-26T16:31:40]i000: MUX:  Adding package: netfx_451mtpackcore to package detect list
    [04C4:06EC][2014-08-26T16:31:40]i000: MUX:  Reset Result
    [04C4:06EC][2014-08-26T16:31:40]i000: MUX:  Reset Result
    [04C4:06EC][2014-08-26T16:31:40]i000: MUX:  Adding package: netfx_451mtpackcorelp to package detect list
    [04C4:06EC][2014-08-26T16:31:40]i000: MUX:  Reset Result
    [04C4:06EC][2014-08-26T16:31:40]i000: MUX:  Reset Result
    [04C4:06EC][2014-08-26T16:31:40]i000: MUX:  Adding package: vsgraphics_helper_amd64 to package detect list
    [04C4:06EC][2014-08-26T16:31:40]i000: MUX:  Reset Result
    [04C4:06EC][2014-08-26T16:31:40]i000: MUX:  Reset Result
    [04C4:06EC][2014-08-26T16:31:40]i000: MUX:  Adding package: Bliss_Core to package detect list
    [04C4:06EC][2014-08-26T16:31:40]i000: MUX:  Reset Result
    [04C4:06EC][2014-08-26T16:31:40]i000: MUX:  Reset Result
    [04C4:06EC][2014-08-26T16:31:40]i000: MUX:  Adding package: Bliss_LP_enu to package detect list
    [04C4:06EC][2014-08-26T16:31:40]i000: MUX:  Reset Result
    [04C4:06EC][2014-08-26T16:31:40]i000: MUX:  Reset Result
    [04C4:06EC][2014-08-26T16:31:40]i000: MUX:  Adding package: help3_vs_msi to package detect list
    [04C4:06EC][2014-08-26T16:31:40]i000: MUX:  Reset Result
    [04C4:06EC][2014-08-26T16:31:40]i000: MUX:  Reset Result
    [04C4:06EC][2014-08-26T16:31:40]i000: MUX:  Adding package: Blend_Core to package detect list
    [04C4:06EC][2014-08-26T16:31:40]i000: MUX:  Reset Result
    [04C4:06EC][2014-08-26T16:31:40]i000: MUX:  Reset Result
    [04C4:06EC][2014-08-26T16:31:40]i000: MUX:  Adding package: Blend_LP to package detect list
    [04C4:06EC][2014-08-26T16:31:40]i000: MUX:  Reset Result
    [04C4:06EC][2014-08-26T16:31:40]i000: MUX:  Reset Result
    [04C4:06EC][2014-08-26T16:31:40]i000: MUX:  Adding package: BehaviorsXamlSDK to package detect list
    [04C4:06EC][2014-08-26T16:31:40]i000: MUX:  Reset Result
    [04C4:06EC][2014-08-26T16:31:40]i000: MUX:  Reset Result
    [04C4:06EC][2014-08-26T16:31:40]i000: MUX:  Adding package: nugetvswin2013 to package detect list
    [04C4:06EC][2014-08-26T16:31:40]i000: MUX:  Reset Result
    [04C4:06EC][2014-08-26T16:31:40]i000: MUX:  Reset Result
    [04C4:06EC][2014-08-26T16:31:40]i052: Condition '(CurrentOperation = "Repair") OR (CurrentOperation = "Uninstall")' evaluates to false.
    [04C4:06EC][2014-08-26T16:31:40]i000: MUX:  Adding package: vs_postclean_winexpress to package detect list
    [04C4:06EC][2014-08-26T16:31:40]i000: MUX:  Reset Result
    [04C4:06EC][2014-08-26T16:31:40]i000: MUX:  Reset Result
    [04C4:06EC][2014-08-26T16:31:40]i000: MUX:  Adding package: AzureMobileServicesSdk to package detect list
    [04C4:06EC][2014-08-26T16:31:40]i000: MUX:  Reset Result
    [04C4:06EC][2014-08-26T16:31:40]i000: MUX:  Reset Result
    [04C4:06EC][2014-08-26T16:31:40]i000: MUX:  Adding package: AzureCommonToolsWinExpress to package detect list
    [04C4:06EC][2014-08-26T16:31:40]i000: MUX:  Reset Result
    [04C4:06EC][2014-08-26T16:31:40]i000: MUX:  Reset Result
    [04C4:06EC][2014-08-26T16:31:40]i000: MUX:  Adding package: azureserviceswinexpress to package detect list
    [04C4:06EC][2014-08-26T16:31:40]i000: MUX:  Reset Result
    [04C4:06EC][2014-08-26T16:31:40]i000: MUX:  Reset Result
    [04C4:06EC][2014-08-26T16:31:40]i000: MUX:  Adding package: AdsSDK10_MSAdvertisingServiceExtension to package detect list
    [04C4:06EC][2014-08-26T16:31:40]i000: MUX:  Reset Result
    [04C4:06EC][2014-08-26T16:31:40]i000: MUX:  Reset Result
    [04C4:06EC][2014-08-26T16:31:40]i000: MUX:  Adding package: AdsSDK10_Win8_1AdSDK to package detect list
    [04C4:06EC][2014-08-26T16:31:40]i000: MUX:  Reset Result
    [04C4:06EC][2014-08-26T16:31:40]i000: MUX:  Reset Result
    [04C4:06EC][2014-08-26T16:31:40]i000: MUX:  Adding package: kb2829760 to package detect list
    [04C4:06EC][2014-08-26T16:31:40]i000: MUX:  Reset Result
    [04C4:06EC][2014-08-26T16:31:40]i000: MUX:  Reset Result
    [04C4:06EC][2014-08-26T16:31:40]i000: MUX:  Adding package: kb2829760_enu to package detect list
    [04C4:06EC][2014-08-26T16:31:40]i000: MUX:  Reset Result
    [04C4:06EC][2014-08-26T16:31:40]i000: MUX:  Reset Result
    [04C4:06EC][2014-08-26T16:31:40]i000: MUX:  Adding package: kb2829760v2 to package detect list
    [04C4:06EC][2014-08-26T16:31:40]i000: MUX:  Reset Result
    [04C4:06EC][2014-08-26T16:31:40]i000: MUX:  Reset Result
    [04C4:06EC][2014-08-26T16:31:40]i000: MUX:  Adding package: kb2829760v2_enu to package detect list
    [04C4:06EC][2014-08-26T16:31:40]i000: MUX:  Reset Result
    [04C4:06EC][2014-08-26T16:31:40]i000: MUX:  Reset Result
    [04C4:06EC][2014-08-26T16:31:40]i052: Condition 'vsupdate_DetectKeyExists AND (vsupdate_DetectKey >= v12.0.30723)' evaluates to false.
    [04C4:06EC][2014-08-26T16:31:40]i000: MUX:  Adding package: vsupdate_kb2829760 to package detect list
    [04C4:06EC][2014-08-26T16:31:40]i000: MUX:  Reset Result
    [04C4:06EC][2014-08-26T16:31:40]i000: MUX:  Reset Result
    [04C4:06EC][2014-08-26T16:31:40]i000: MUX:  Adding package: winexpress_finalizer to package detect list
    [04C4:06EC][2014-08-26T16:31:40]i000: MUX:  Reset Result
    [04C4:06EC][2014-08-26T16:31:40]i000: MUX:  Reset Result
    [04C4:06EC][2014-08-26T16:31:40]i101: Detected package: vs_preclean_winexpress, state: Absent, cached: None
    [04C4:06EC][2014-08-26T16:31:40]i101: Detected package: Preparation_Uninstall_winexpress_full, state: Absent, cached: None
    [04C4:06EC][2014-08-26T16:31:40]i101: Detected package: vcRuntimeMinimum_x86, state: Absent, cached: None
    [04C4:06EC][2014-08-26T16:31:40]i101: Detected package: vs_minshellcore, state: Absent, cached: None
    [04C4:06EC][2014-08-26T16:31:40]i101: Detected package: vs_minshellinterop, state: Absent, cached: None
    [04C4:06EC][2014-08-26T16:31:40]i101: Detected package: vs_minshellres, state: Absent, cached: None
    [04C4:06EC][2014-08-26T16:31:40]i101: Detected package: ssceruntime_x86_msi, state: Absent, cached: None
    [04C4:06EC][2014-08-26T16:31:40]i101: Detected package: ssceruntime_x64_msi, state: Absent, cached: None
    [04C4:06EC][2014-08-26T16:31:40]i101: Detected package: vcRuntimeMinimum_x64, state: Absent, cached: None
    [04C4:06EC][2014-08-26T16:31:40]i101: Detected package: VCRedistD11x86, state: Absent, cached: None
    [04C4:06EC][2014-08-26T16:31:40]i101: Detected package: VCRedistD11x64, state: Absent, cached: None
    [04C4:06EC][2014-08-26T16:31:40]i101: Detected package: vcRuntimeAdditional_x86, state: Absent, cached: None
    [04C4:06EC][2014-08-26T16:31:40]i101: Detected package: vcRuntimeAdditional_x64, state: Absent, cached: None
    [04C4:06EC][2014-08-26T16:31:40]i101: Detected package: vcRuntimeDebug_x86, state: Absent, cached: None
    [04C4:06EC][2014-08-26T16:31:40]i101: Detected package: vcRuntimeDebug_x64, state: Absent, cached: None
    [04C4:06EC][2014-08-26T16:31:40]i101: Detected package: Msi_BuildTools_MSBuild_x86, state: Absent, cached: None
    [04C4:06EC][2014-08-26T16:31:40]i101: Detected package: Msi_BuildTools_MSBuild_amd64, state: Absent, cached: None
    [04C4:06EC][2014-08-26T16:31:40]i101: Detected package: Msi_BuildTools_MSBuild_Res_x86, state: Absent, cached: None
    [04C4:06EC][2014-08-26T16:31:40]i101: Detected package: Msi_BuildTools_MSBuild_Res_amd64, state: Absent, cached: None
    [04C4:06EC][2014-08-26T16:31:40]i101: Detected package: winexpress_coremsi, state: Absent, cached: None
    [04C4:06EC][2014-08-26T16:31:40]i101: Detected package: winexpress_resourcemsi, state: Absent, cached: None
    [04C4:06EC][2014-08-26T16:31:40]i101: Detected package: WinBlue_MetroSDK, state: Absent, cached: None
    [04C4:06EC][2014-08-26T16:31:40]i101: Detected package: WinBlue_SDK_Metro_DX_Redist_x64, state: Absent, cached: None
    [04C4:06EC][2014-08-26T16:31:40]i101: Detected package: WinBlue_SDK_Metro_DX_Redist_x86, state: Absent, cached: None
    [04C4:06EC][2014-08-26T16:31:40]i101: Detected package: WinBlue_SDK_App_Cert_Kit_x64, state: Absent, cached: None
    [04C4:06EC][2014-08-26T16:31:40]i101: Detected package: WinBlue_SDK_App_Cert_Kit_Native_x64, state: Absent, cached: None
    [04C4:06EC][2014-08-26T16:31:40]i101: Detected package: WinBlue_SDK_App_Cert_Kit_x86, state: Absent, cached: None
    [04C4:06EC][2014-08-26T16:31:40]i101: Detected package: WinBlue_SDK_App_Cert_Kit_Native_x86, state: Absent, cached: None
    [04C4:06EC][2014-08-26T16:31:40]i101: Detected package: WinBlue_Runtime_Intellisense, state: Absent, cached: None
    [04C4:06EC][2014-08-26T16:31:40]i101: Detected package: sdk_tools4, state: Absent, cached: None
    [04C4:06EC][2014-08-26T16:31:40]i101: Detected package: sdk_tools451, state: Absent, cached: None
    [04C4:06EC][2014-08-26T16:31:40]i101: Detected package: vs_expbsln_x64_msi_73, state: Absent, cached: None
    [04C4:06EC][2014-08-26T16:31:40]i101: Detected package: WinLibJS_CORE.msi, state: Absent, cached: None
    [04C4:06EC][2014-08-26T16:31:40]i101: Detected package: PerfTools_CORE_x86.msi, state: Absent, cached: None
    [04C4:06EC][2014-08-26T16:31:40]i101: Detected package: PerfTools_CORE_amd64.msi, state: Absent, cached: None
    [04C4:06EC][2014-08-26T16:31:40]i101: Detected package: Verification_Tools, state: Absent, cached: None
    [04C4:06EC][2014-08-26T16:31:40]i101: Detected package: tfs_objectmodelcore_x86, state: Absent, cached: None
    [04C4:06EC][2014-08-26T16:31:40]i101: Detected package: tfs_objectmodelcore_x64, state: Absent, cached: None
    [04C4:06EC][2014-08-26T16:31:40]i101: Detected package: tfs_objectmodelcoreres_x86_enu, state: Absent, cached: None
    [04C4:06EC][2014-08-26T16:31:40]i101: Detected package: tfs_objectmodelcoreres_x64_enu, state: Absent, cached: None
    [04C4:06EC][2014-08-26T16:31:40]i101: Detected package: vs_teamExplorerCore, state: Absent, cached: None
    [04C4:06EC][2014-08-26T16:31:40]i101: Detected package: vs_teamExplorerCoreRes, state: Absent, cached: None
    [04C4:06EC][2014-08-26T16:31:40]i101: Detected package: vc_compilercore86, state: Absent, cached: None
    [04C4:06EC][2014-08-26T16:31:40]i101: Detected package: vc_compilercore86res, state: Absent, cached: None
    [04C4:06EC][2014-08-26T16:31:40]i101: Detected package: vc_compilercore, state: Absent, cached: None
    [04C4:06EC][2014-08-26T16:31:40]i101: Detected package: vc_compilercoreres, state: Absent, cached: None
    [04C4:06EC][2014-08-26T16:31:40]i101: Detected package: vc_librarycore86, state: Absent, cached: None
    [04C4:06EC][2014-08-26T16:31:40]i101: Detected package: vc_librarycore, state: Absent, cached: None
    [04C4:06EC][2014-08-26T16:31:40]i101: Detected package: vc_cpp_rest, state: Absent, cached: None
    [04C4:06EC][2014-08-26T16:31:40]i101: Detected package: vc_cpp_mobile, state: Absent, cached: None
    [04C4:06EC][2014-08-26T16:31:40]i101: Detected package: netfx_451mtpackcore, state: Absent, cached: None
    [04C4:06EC][2014-08-26T16:31:40]i101: Detected package: netfx_451mtpackcorelp, state: Absent, cached: None
    [04C4:06EC][2014-08-26T16:31:40]i101: Detected package: vsgraphics_helper_amd64, state: Absent, cached: None
    [04C4:06EC][2014-08-26T16:31:40]i101: Detected package: Bliss_Core, state: Absent, cached: None
    [04C4:06EC][2014-08-26T16:31:40]i101: Detected package: Bliss_LP_enu, state: Absent, cached: None
    [04C4:06EC][2014-08-26T16:31:40]i101: Detected package: help3_vs_msi, state: Absent, cached: None
    [04C4:06EC][2014-08-26T16:31:40]i101: Detected package: Blend_Core, state: Absent, cached: None
    [04C4:06EC][2014-08-26T16:31:40]i101: Detected package: Blend_LP, state: Absent, cached: None
    [04C4:06EC][2014-08-26T16:31:40]i101: Detected package: BehaviorsXamlSDK, state: Absent, cached: None
    [04C4:06EC][2014-08-26T16:31:40]i101: Detected package: nugetvswin2013, state: Absent, cached: None
    [04C4:06EC][2014-08-26T16:31:40]i101: Detected package: vs_postclean_winexpress, state: Absent, cached: None
    [04C4:06EC][2014-08-26T16:31:40]i101: Detected package: AzureMobileServicesSdk, state: Absent, cached: None
    [04C4:06EC][2014-08-26T16:31:40]i101: Detected package: AzureCommonToolsWinExpress, state: Absent, cached: None
    [04C4:06EC][2014-08-26T16:31:40]i101: Detected package: azureserviceswinexpress, state: Absent, cached: None
    [04C4:06EC][2014-08-26T16:31:40]i101: Detected package: AdsSDK10_MSAdvertisingServiceExtension, state: Absent, cached: None
    [04C4:06EC][2014-08-26T16:31:40]i101: Detected package: AdsSDK10_Win8_1AdSDK, state: Absent, cached: None
    [04C4:06EC][2014-08-26T16:31:40]i101: Detected package: kb2829760, state: Absent, cached: None
    [04C4:06EC][2014-08-26T16:31:40]i101: Detected package: kb2829760_enu, state: Absent, cached: None
    [04C4:06EC][2014-08-26T16:31:40]i101: Detected package: kb2829760v2, state: Absent, cached: None
    [04C4:06EC][2014-08-26T16:31:40]i101: Detected package: kb2829760v2_enu, state: Absent, cached: None
    [04C4:06EC][2014-08-26T16:31:40]i101: Detected package: vsupdate_kb2829760, state: Absent, cached: None
    [04C4:06EC][2014-08-26T16:31:40]i101: Detected package: winexpress_finalizer, state: Absent, cached: None
    [04C4:06EC][2014-08-26T16:31:40]i052: Condition '(VersionNT = v6.3) AND (WindowsBuildNumber < 9600)' evaluates to false.
    [04C4:06EC][2014-08-26T16:31:40]i052: Condition 'VersionNT < v6.3' evaluates to true.
    [04C4:06EC][2014-08-26T16:31:40]i052: Condition '(VersionNT = v6.3) AND (netfxfullredist_43_DetectKey < v4.5.30723)' evaluates to false.
    [04C4:06EC][2014-08-26T16:31:40]i052: Condition 'CompatibilityMode = 0' evaluates to false.
    [04C4:06EC][2014-08-26T16:31:40]i052: Condition 'RebootPending = 1' evaluates to false.
    [04C4:06EC][2014-08-26T16:31:40]i052: Condition 'NOT (IEsvcVersionExists) OR (IEsvcVersion < v10.0)' evaluates to false.
    [04C4:06EC][2014-08-26T16:31:40]i000: MUX:  Stop Block: WinBlock : This version of Visual Studio requires a computer with a !$!http://go.microsoft.com/fwlink/?LinkID=376917&clcid=0x409,newer version of Windows!@!.
    [04C4:06EC][2014-08-26T16:31:40]i000: MUX:  Detect Completed
    [04C4:06EC][2014-08-26T16:31:40]i000: MUX:  Wait for View to be loaded
    [04C4:1184][2014-08-26T16:31:40]i000: MUX:  Detect Completed, now create view
    [04C4:06EC][2014-08-26T16:31:40]i000: MUX:  View loaded
    [04C4:06EC][2014-08-26T16:31:40]i000: MUX:  Go to Blocker page.
    [04C4:06EC][2014-08-26T16:31:40]i199: Detect complete, result: 0x0

    감사합니다.

    2014년 8월 26일 화요일 오전 8:14

답변

  • Visual Studio Express 2013 for Windows는 Windows Store 및 Windows Phone app을 개발하는 용으로 제공하며, 운영체제 요구사항은 Windows 8.1입니다.

    아래의 내용 확인 부탁 드리겠습니다.

    http://www.visualstudio.com/products/visual-studio-express-vs

    Express 2013 for Windows

    Visual Studio Express 2013 for Windows를 사용하여 Windows 8.1에서 혁신적이고 뛰어난 Windows 스토어 및 Windows Phone 앱을 만들 수 있습니다. 이러한 도구에는 모든 기능을 갖춘 코드 편집기, 강력한 디버거, 집중된 프로파일러 및 HTML5/JavaScript, C++, C# 또는 Visual Basic으로 작성한 앱을 빌드하는 데 사용할 수 있는 다양한 언어 지원이 포함됩니다. Visual Studio Express 2013 for Windows에는 다양한 종류의 장치에서 앱을 테스트하는 데 사용할 수 있는 장치 시뮬레이터도 포함되어 있습니다.

    다운로드            

    시스템 요구 사항:

    지원되는 운영 체제

    • Windows 8.1(x86 및 x64)

    하드웨어 요구 사항

    • 1.6GHz 이상 프로세서
    • 1GB RAM(가상 컴퓨터에서 실행되는 경우 1.5GB)
    • 11GB의 하드 디스크 여유 공간
    • 5400RPM 하드 드라이브
    • DirectX 9 지원 비디오 카드, 1024 x 768 이상 디스플레이 해상도


    2014년 8월 26일 화요일 오전 9:20

모든 응답


  • 제 생각에는 Windows 7 Professional K의 경우 일반적인 Windows 7이 아니기 때문에 발생하는 것이 아닌가 생각해 봅니다. 

    Windows K has neither Media Player nor Windows Messenger. (In compliance with the Korean Fair Trade Commission order).

    위와같은 현재 Windows 7 Professional 에서 Visual studio update 3에 관해서 알려진 이슈는 확인되지 않습니다.

    감사합니다.



    2014년 8월 26일 화요일 오전 9:05
    중재자
  • Visual Studio Express 2013 for Windows는 Windows Store 및 Windows Phone app을 개발하는 용으로 제공하며, 운영체제 요구사항은 Windows 8.1입니다.

    아래의 내용 확인 부탁 드리겠습니다.

    http://www.visualstudio.com/products/visual-studio-express-vs

    Express 2013 for Windows

    Visual Studio Express 2013 for Windows를 사용하여 Windows 8.1에서 혁신적이고 뛰어난 Windows 스토어 및 Windows Phone 앱을 만들 수 있습니다. 이러한 도구에는 모든 기능을 갖춘 코드 편집기, 강력한 디버거, 집중된 프로파일러 및 HTML5/JavaScript, C++, C# 또는 Visual Basic으로 작성한 앱을 빌드하는 데 사용할 수 있는 다양한 언어 지원이 포함됩니다. Visual Studio Express 2013 for Windows에는 다양한 종류의 장치에서 앱을 테스트하는 데 사용할 수 있는 장치 시뮬레이터도 포함되어 있습니다.

    다운로드            

    시스템 요구 사항:

    지원되는 운영 체제

    • Windows 8.1(x86 및 x64)

    하드웨어 요구 사항

    • 1.6GHz 이상 프로세서
    • 1GB RAM(가상 컴퓨터에서 실행되는 경우 1.5GB)
    • 11GB의 하드 디스크 여유 공간
    • 5400RPM 하드 드라이브
    • DirectX 9 지원 비디오 카드, 1024 x 768 이상 디스플레이 해상도


    2014년 8월 26일 화요일 오전 9:20
  • 답변 감사합니다.
    2014년 8월 26일 화요일 오전 9:27
  • 확인해보니, express 2013은 win8 전용이었군요...

    제가 설명을 제대로 확인 안한 것 같네요

    무엇을 보고 win7sp1이 지원된다고 믿었었는지 모르겠습니다;;;

    일단 express 2013 update3 for windows desktop을 사용하기로 했고, 잘 설치가 진행되고 있습니다.

    답변에 감사드립니다.

    2014년 8월 26일 화요일 오전 9:32